StationID,Date,MaxTemp,MinTemp,Precipitation,Snowfall,SnowDepth
"USR0000HWVA","2003-04-17",71.06,69.08,,,
"USR0000HWVA","2003-04-18",80.06,69.08,,,
"USR0000HWVA","2003-04-19",82.04,66.02,,,
"USR0000HWVA","2003-04-20",78.98,66.02,,,
"USR0000HWVA","2003-04-21",78.08,66.02,,,
"USR0000HWVA","2003-04-22",78.98,66.92,,,
"USR0000HWVA","2003-04-23",78.08,68.00,,,
"USR0000HWVA","2003-04-24",80.96,66.02,,,
"USR0000HWVA","2003-04-25",82.94,66.02,,,
"USR0000HWVA","2003-04-26",84.92,66.92,,,
"USR0000HWVA","2003-04-27",86.00,64.04,,,
"USR0000HWVA","2003-04-28",84.92,60.98,,,
"USR0000HWVA","2003-04-29",84.92,60.98,,,
"USR0000HWVA","2003-04-30",86.00,60.08,,,
"USR0000HWVA","2003-05-01",87.08,62.96,,,
"USR0000HWVA","2003-05-02",80.06,64.94,,,
"USR0000HWVA","2003-05-03",89.06,64.94,,,
"USR0000HWVA","2003-05-04",86.00,66.02,,,
"USR0000HWVA","2003-05-05",84.92,64.04,,,
"USR0000HWVA","2003-05-06",84.92,66.02,,,
"USR0000HWVA","2003-05-07",80.96,69.98,,,
"USR0000HWVA","2003-05-08",84.92,66.02,,,
"USR0000HWVA","2003-05-09",86.00,71.06,,,
"USR0000HWVA","2003-05-10",84.02,69.08,,,
"USR0000HWVA","2003-05-11",80.96,69.08,,,
"USR0000HWVA","2003-05-12",84.02,69.08,,,
"USR0000HWVA","2003-05-13",84.92,69.98,,,
"USR0000HWVA","2003-05-14",87.98,69.98,,,
"USR0000HWVA","2003-05-15",86.00,71.06,,,
"USR0000HWVA","2003-05-16",84.02,68.00,,,
"USR0000HWVA","2003-05-17",87.08,69.08,,,
"USR0000HWVA","2003-05-18",84.02,68.00,,,
"USR0000HWVA","2003-05-19",87.08,68.00,,,
"USR0000HWVA","2003-05-20",86.00,66.02,,,
"USR0000HWVA","2003-05-21",87.98,66.92,,,
"USR0000HWVA","2003-05-22",86.00,68.00,,,
"USR0000HWVA","2003-05-23",86.00,69.98,,,
"USR0000HWVA","2003-05-24",84.02,66.92,,,
"USR0000HWVA","2003-05-25",91.94,64.04,,,
"USR0000HWVA","2003-05-26",91.04,62.96,,,
"USR0000HWVA","2003-05-27",87.98,62.96,,,
"USR0000HWVA","2003-05-28",87.98,62.96,,,
"USR0000HWVA","2003-05-29",89.96,64.04,,,
"USR0000HWVA","2003-05-30",84.02,64.94,,,
"USR0000HWVA","2003-05-31",87.08,64.04,,,
"USR0000HWVA","2003-06-01",86.00,64.94,,,
"USR0000HWVA","2003-06-02",87.98,64.04,,,
"USR0000HWVA","2003-06-03",87.08,64.04,,,
"USR0000HWVA","2003-06-04",84.92,64.94,,,
"USR0000HWVA","2003-06-05",84.02,64.94,,,
"USR0000HWVA","2003-06-06",87.08,64.04,,,
"USR0000HWVA","2003-06-07",84.92,64.04,,,
"USR0000HWVA","2003-06-08",82.04,64.94,,,
"USR0000HWVA","2003-06-09",84.02,66.02,,,
"USR0000HWVA","2003-06-10",87.98,71.06,,,
"USR0000HWVA","2003-06-11",82.94,71.06,,,
"USR0000HWVA","2003-06-12",84.02,69.08,,,
"USR0000HWVA","2003-06-13",86.00,69.08,,,
"USR0000HWVA","2003-06-14",86.00,66.92,,,
"USR0000HWVA","2003-06-15",84.92,71.06,,,
"USR0000HWVA","2003-06-16",87.98,71.06,,,
"USR0000HWVA","2003-06-17",84.02,69.98,,,
"USR0000HWVA","2003-06-18",82.94,69.08,,,
"USR0000HWVA","2003-06-19",87.08,69.98,,,
"USR0000HWVA","2003-06-20",87.08,69.98,,,
"USR0000HWVA","2003-06-21",86.00,68.00,,,
"USR0000HWVA","2003-06-22",87.98,69.98,,,
"USR0000HWVA","2003-06-23",82.04,71.06,,,
"USR0000HWVA","2003-06-24",89.06,71.96,,,
"USR0000HWVA","2003-06-25",87.98,71.96,,,
"USR0000HWVA","2003-06-26",89.96,69.98,,,
"USR0000HWVA","2003-06-27",82.04,71.06,,,
"USR0000HWVA","2003-06-28",82.94,69.98,,,
"USR0000HWVA","2003-06-29",80.06,69.08,,,
"USR0000HWVA","2003-06-30",82.94,68.00,,,
"USR0000HWVA","2003-07-01",86.00,69.98,,,
"USR0000HWVA","2003-07-02",87.98,69.98,,,
"USR0000HWVA","2003-07-03",89.06,69.08,,,
"USR0000HWVA","2003-07-04",87.98,69.98,,,
"USR0000HWVA","2003-07-05",86.00,66.92,,,
"USR0000HWVA","2003-07-06",86.00,71.06,,,
"USR0000HWVA","2003-07-07",87.08,69.98,,,
"USR0000HWVA","2003-07-08",84.02,69.98,,,
"USR0000HWVA","2003-07-09",87.08,71.06,,,
"USR0000HWVA","2003-07-10",84.92,71.96,,,
"USR0000HWVA","2003-07-11",87.08,71.96,,,
"USR0000HWVA","2003-07-12",87.08,71.96,,,
"USR0000HWVA","2003-07-13",91.94,73.94,,,
"USR0000HWVA","2003-07-14",87.08,73.04,,,
"USR0000HWVA","2003-07-15",86.00,71.96,,,
"USR0000HWVA","2003-07-16",87.08,73.04,,,
"USR0000HWVA","2003-07-17",89.96,73.04,,,
"USR0000HWVA","2003-07-18",91.04,73.04,,,
"USR0000HWVA","2003-07-19",87.98,73.04,,,
"USR0000HWVA","2003-07-20",89.96,73.04,,,
"USR0000HWVA","2003-07-21",84.92,73.04,,,
"USR0000HWVA","2003-07-22",89.06,71.06,,,
"USR0000HWVA","2003-07-23",89.06,73.04,,,
"USR0000HWVA","2003-07-24",89.06,73.04,,,
"USR0000HWVA","2003-07-25",87.08,73.94,,,
"USR0000HWVA","2003-07-26",84.02,71.06,,,
"USR0000HWVA","2003-07-27",89.96,71.06,,,
"USR0000HWVA","2003-07-28",84.02,69.98,,,
"USR0000HWVA","2003-07-29",87.98,73.04,,,
"USR0000HWVA","2003-07-30",87.08,71.96,,,
"USR0000HWVA","2003-07-31",87.98,71.06,,,
"USR0000HWVA","2003-08-01",87.98,71.96,,,
"USR0000HWVA","2003-08-02",86.00,71.96,,,
"USR0000HWVA","2003-08-03",89.06,73.04,,,
"USR0000HWVA","2003-08-04",89.06,64.94,,,
"USR0000HWVA","2003-08-05",93.02,66.92,,,
"USR0000HWVA","2003-08-06",91.04,73.04,,,
"USR0000HWVA","2003-08-07",87.98,73.94,,,
"USR0000HWVA","2003-08-08",87.08,69.98,,,
"USR0000HWVA","2003-08-09",87.08,69.98,,,
"USR0000HWVA","2003-08-10",84.92,71.96,,,
"USR0000HWVA","2003-08-11",87.98,71.06,,,
"USR0000HWVA","2003-08-12",87.98,73.04,,,
"USR0000HWVA","2003-08-13",87.08,73.94,,,
"USR0000HWVA","2003-08-14",84.92,73.04,,,
"USR0000HWVA","2003-08-15",87.08,73.04,,,
"USR0000HWVA","2003-08-16",89.96,73.94,,,
"USR0000HWVA","2003-08-17",87.08,75.02,,,
"USR0000HWVA","2003-08-18",89.06,73.94,,,
"USR0000HWVA","2003-08-19",89.96,73.94,,,
"USR0000HWVA","2003-08-20",89.96,73.04,,,
"USR0000HWVA","2003-08-21",84.92,73.94,,,
"USR0000HWVA","2003-08-22",89.06,71.96,,,
"USR0000HWVA","2003-08-23",87.08,71.06,,,
"USR0000HWVA","2003-08-24",87.08,71.06,,,
"USR0000HWVA","2003-08-25",91.04,73.04,,,
"USR0000HWVA","2003-08-26",89.96,71.96,,,
"USR0000HWVA","2003-08-27",86.00,69.08,,,
"USR0000HWVA","2003-08-28",89.96,71.06,,,
"USR0000HWVA","2003-08-29",87.08,66.02,,,
"USR0000HWVA","2003-08-30",89.96,73.04,,,
"USR0000HWVA","2003-08-31",89.96,75.02,,,
"USR0000HWVA","2003-09-01",87.98,75.02,,,
"USR0000HWVA","2003-09-02",87.98,73.04,,,
"USR0000HWVA","2003-09-03",89.96,73.04,,,
"USR0000HWVA","2003-09-04",89.96,69.98,,,
"USR0000HWVA","2003-09-05",87.08,73.04,,,
"USR0000HWVA","2003-09-06",91.94,73.04,,,
"USR0000HWVA","2003-09-07",89.06,73.04,,,
"USR0000HWVA","2003-09-08",87.98,71.06,,,
"USR0000HWVA","2003-09-09",91.04,73.04,,,
"USR0000HWVA","2003-09-10",84.92,69.08,,,
"USR0000HWVA","2003-09-11",82.04,69.08,,,
"USR0000HWVA","2003-09-12",86.00,68.00,,,
"USR0000HWVA","2003-09-13",84.02,71.96,,,
"USR0000HWVA","2003-09-14",87.98,69.08,,,
"USR0000HWVA","2003-09-15",86.00,71.96,,,
"USR0000HWVA","2003-09-16",89.06,73.04,,,
"USR0000HWVA","2003-09-17",86.00,71.96,,,
"USR0000HWVA","2003-09-18",87.08,73.04,,,
"USR0000HWVA","2003-09-19",84.92,71.06,,,
"USR0000HWVA","2003-09-20",82.94,66.02,,,
"USR0000HWVA","2003-09-21",87.08,66.02,,,
"USR0000HWVA","2003-09-22",87.98,68.00,,,
"USR0000HWVA","2003-09-23",87.98,69.98,,,
"USR0000HWVA","2003-09-24",87.08,71.06,,,
"USR0000HWVA","2003-09-25",82.04,69.08,,,
"USR0000HWVA","2003-09-26",86.00,68.00,,,
"USR0000HWVA","2003-09-27",87.98,66.92,,,
"USR0000HWVA","2003-09-28",89.06,64.94,,,
"USR0000HWVA","2003-09-29",87.98,66.92,,,
"USR0000HWVA","2003-09-30",86.00,66.02,,,
"USR0000HWVA","2003-10-01",87.98,71.06,,,
"USR0000HWVA","2003-10-02",86.00,68.00,,,
"USR0000HWVA","2003-10-03",84.02,69.08,,,
"USR0000HWVA","2003-10-04",82.04,68.00,,,
"USR0000HWVA","2003-10-05",89.06,73.04,,,
"USR0000HWVA","2003-10-06",91.94,73.04,,,
"USR0000HWVA","2003-10-07",86.00,71.06,,,
"USR0000HWVA","2003-10-08",86.00,71.96,,,
"USR0000HWVA","2003-10-09",87.98,73.04,,,
"USR0000HWVA","2003-10-10",87.98,73.04,,,
"USR0000HWVA","2003-10-11",86.00,73.94,,,
"USR0000HWVA","2003-10-12",91.04,71.96,,,
"USR0000HWVA","2003-10-13",87.08,73.94,,,
"USR0000HWVA","2003-10-14",87.98,69.98,,,
"USR0000HWVA","2003-10-15",84.92,69.08,,,
"USR0000HWVA","2003-10-16",86.00,69.98,,,
"USR0000HWVA","2003-10-17",84.02,71.06,,,
"USR0000HWVA","2003-10-18",87.08,64.94,,,
"USR0000HWVA","2003-10-19",87.98,64.04,,,
"USR0000HWVA","2003-10-20",89.06,64.94,,,
"USR0000HWVA","2003-10-21",87.08,64.94,,,
"USR0000HWVA","2003-10-22",87.98,66.92,,,
"USR0000HWVA","2003-10-23",87.08,66.92,,,
"USR0000HWVA","2003-10-24",82.94,69.98,,,
"USR0000HWVA","2003-10-25",89.96,69.08,,,
"USR0000HWVA","2003-10-26",86.00,68.00,,,
"USR0000HWVA","2003-10-27",87.98,68.00,,,
"USR0000HWVA","2003-10-28",87.08,71.06,,,
"USR0000HWVA","2003-10-29",89.96,69.98,,,
"USR0000HWVA","2003-10-30",84.92,68.00,,,
"USR0000HWVA","2003-10-31",87.08,66.92,,,
"USR0000HWVA","2003-11-01",84.92,66.02,,,
"USR0000HWVA","2003-11-02",87.08,69.08,,,
"USR0000HWVA","2003-11-03",87.08,68.00,,,
"USR0000HWVA","2003-11-04",86.00,69.08,,,
"USR0000HWVA","2003-11-05",89.06,68.00,,,
"USR0000HWVA","2003-11-06",84.92,68.00,,,
"USR0000HWVA","2003-11-07",87.98,73.04,,,
"USR0000HWVA","2003-11-08",87.98,71.06,,,
"USR0000HWVA","2003-11-09",86.00,71.06,,,
"USR0000HWVA","2003-11-10",84.02,71.06,,,
"USR0000HWVA","2003-11-11",84.02,71.06,,,
"USR0000HWVA","2003-11-12",84.02,69.98,,,
"USR0000HWVA","2003-11-13",82.04,68.00,,,
"USR0000HWVA","2003-11-14",82.94,69.08,,,
"USR0000HWVA","2003-11-15",82.04,69.08,,,
"USR0000HWVA","2003-11-16",84.92,69.08,,,
"USR0000HWVA","2003-11-17",84.02,71.96,,,
"USR0000HWVA","2003-11-18",86.00,71.96,,,
"USR0000HWVA","2003-11-19",73.94,66.02,,,
"USR0000HWVA","2003-11-20",73.94,64.04,,,
"USR0000HWVA","2003-11-21",77.00,66.02,,,
"USR0000HWVA","2003-11-22",80.96,64.04,,,
"USR0000HWVA","2003-11-23",80.96,64.94,,,
"USR0000HWVA","2003-11-24",82.94,62.06,,,
"USR0000HWVA","2003-11-25",80.06,64.94,,,
"USR0000HWVA","2003-11-26",80.06,66.02,,,
"USR0000HWVA","2003-11-27",84.02,62.06,,,
"USR0000HWVA","2003-11-28",84.02,64.94,,,
"USR0000HWVA","2003-11-29",78.98,69.08,,,
"USR0000HWVA","2003-11-30",78.98,69.08,,,
"USR0000HWVA","2003-12-01",75.02,68.00,,,
"USR0000HWVA","2003-12-02",75.92,66.02,,,
"USR0000HWVA","2003-12-03",80.06,62.06,,,
"USR0000HWVA","2003-12-04",82.04,69.98,,,
"USR0000HWVA","2003-12-05",80.96,69.08,,,
"USR0000HWVA","2003-12-06",84.02,68.00,,,
"USR0000HWVA","2003-12-07",80.06,66.92,,,
"USR0000HWVA","2003-12-08",78.08,69.08,,,
"USR0000HWVA","2003-12-09",78.98,69.98,,,
"USR0000HWVA","2003-12-10",78.08,69.08,,,
"USR0000HWVA","2003-12-11",78.98,69.08,,,
"USR0000HWVA","2003-12-12",82.04,68.00,,,
"USR0000HWVA","2003-12-13",78.08,66.92,,,
"USR0000HWVA","2003-12-14",80.96,69.08,,,
"USR0000HWVA","2003-12-15",78.98,66.92,,,
"USR0000HWVA","2003-12-16",80.96,60.98,,,
"USR0000HWVA","2003-12-17",75.02,62.96,,,
"USR0000HWVA","2003-12-18",75.02,64.04,,,
"USR0000HWVA","2003-12-19",78.98,62.96,,,
"USR0000HWVA","2003-12-20",80.96,59.00,,,
"USR0000HWVA","2003-12-21",78.08,59.00,,,
"USR0000HWVA","2003-12-22",82.94,62.96,,,
"USR0000HWVA","2003-12-23",80.06,66.02,,,
"USR0000HWVA","2003-12-24",82.94,69.08,,,
"USR0000HWVA","2003-12-25",84.02,62.06,,,
"USR0000HWVA","2003-12-26",82.04,62.06,,,
"USR0000HWVA","2003-12-27",82.04,62.06,,,
"USR0000HWVA","2003-12-28",75.92,57.92,,,
"USR0000HWVA","2003-12-29",80.06,60.98,,,
"USR0000HWVA","2003-12-30",80.96,66.02,,,
"USR0000HWVA","2003-12-31",77.00,66.02,,,
"USR0000HWVA","2004-01-01",71.96,66.02,,,
"USR0000HWVA","2004-01-02",71.96,62.06,,,
"USR0000HWVA","2004-01-03",78.98,62.06,,,
"USR0000HWVA","2004-01-04",78.98,59.00,,,
"USR0000HWVA","2004-01-05",78.98,57.02,,,
"USR0000HWVA","2004-01-06",80.06,60.08,,,
"USR0000HWVA","2004-01-07",80.06,57.02,,,
"USR0000HWVA","2004-01-08",80.96,60.08,,,
"USR0000HWVA","2004-01-09",78.98,66.92,,,
"USR0000HWVA","2004-01-10",78.98,62.96,,,
"USR0000HWVA","2004-01-11",80.06,60.98,,,
"USR0000HWVA","2004-01-12",78.08,64.04,,,
"USR0000HWVA","2004-01-13",80.96,59.00,,,
"USR0000HWVA","2004-01-14",75.92,64.94,,,
"USR0000HWVA","2004-01-15",82.04,62.06,,,
"USR0000HWVA","2004-01-16",77.00,60.08,,,
"USR0000HWVA","2004-01-17",80.96,59.00,,,
"USR0000HWVA","2004-01-18",80.06,64.94,,,
"USR0000HWVA","2004-01-19",77.00,66.02,,,
"USR0000HWVA","2004-01-20",78.08,66.02,,,
"USR0000HWVA","2004-01-21",78.08,64.04,,,
"USR0000HWVA","2004-01-22",80.96,64.04,,,
"USR0000HWVA","2004-01-23",75.02,62.06,,,
"USR0000HWVA","2004-01-24",82.94,60.08,,,
"USR0000HWVA","2004-01-25",82.94,60.98,,,
"USR0000HWVA","2004-01-26",78.98,64.04,,,
"USR0000HWVA","2004-01-27",82.94,64.04,,,
"USR0000HWVA","2004-01-28",80.96,69.08,,,
"USR0000HWVA","2004-01-29",80.96,66.92,,,
"USR0000HWVA","2004-01-30",82.04,66.02,,,
"USR0000HWVA","2004-01-31",80.06,66.02,,,
"USR0000HWVA","2004-02-01",78.98,64.94,,,
"USR0000HWVA","2004-02-02",80.06,60.98,,,
"USR0000HWVA","2004-02-03",86.00,62.06,,,
"USR0000HWVA","2004-02-04",82.94,60.98,,,
"USR0000HWVA","2004-02-05",78.08,69.08,,,
"USR0000HWVA","2004-02-06",80.06,69.08,,,
"USR0000HWVA","2004-02-07",82.94,64.04,,,
"USR0000HWVA","2004-02-08",82.94,62.96,,,
"USR0000HWVA","2004-02-09",82.94,64.94,,,
"USR0000HWVA","2004-02-10",84.92,66.02,,,
"USR0000HWVA","2004-02-11",84.02,64.94,,,
"USR0000HWVA","2004-02-12",82.94,62.06,,,
"USR0000HWVA","2004-02-13",82.94,60.98,,,
"USR0000HWVA","2004-02-14",82.04,68.00,,,
"USR0000HWVA","2004-02-15",78.08,64.94,,,
"USR0000HWVA","2004-02-16",80.06,64.04,,,
"USR0000HWVA","2004-02-17",80.06,62.06,,,
"USR0000HWVA","2004-02-18",84.92,64.04,,,
"USR0000HWVA","2004-02-19",84.92,62.06,,,
"USR0000HWVA","2004-02-20",84.02,64.04,,,
"USR0000HWVA","2004-02-21",84.92,64.94,,,
"USR0000HWVA","2004-02-22",84.02,62.96,,,
"USR0000HWVA","2004-02-23",84.92,64.94,,,
"USR0000HWVA","2004-02-24",80.96,66.02,,,
"USR0000HWVA","2004-02-25",78.08,69.98,,,
"USR0000HWVA","2004-02-26",82.04,64.04,,,
"USR0000HWVA","2004-02-27",71.96,57.92,,,
"USR0000HWVA","2004-02-28",78.08,59.00,,,
"USR0000HWVA","2004-02-29",75.92,62.96,,,
"USR0000HWVA","2004-03-01",78.08,64.94,,,
"USR0000HWVA","2004-03-02",75.02,64.94,,,
"USR0000HWVA","2004-03-03",75.92,64.94,,,
"USR0000HWVA","2004-03-04",77.00,66.02,,,
"USR0000HWVA","2004-03-05",80.96,66.92,,,
"USR0000HWVA","2004-03-06",84.02,69.08,,,
"USR0000HWVA","2004-03-07",80.96,66.92,,,
"USR0000HWVA","2004-03-08",71.06,62.06,,,
"USR0000HWVA","2004-03-09",69.98,57.92,,,
"USR0000HWVA","2004-03-10",75.92,59.00,,,
"USR0000HWVA","2004-03-11",84.02,66.02,,,
"USR0000HWVA","2004-03-12",82.94,62.06,,,
"USR0000HWVA","2004-03-13",77.00,66.02,,,
"USR0000HWVA","2004-03-14",71.96,62.96,,,
"USR0000HWVA","2004-03-15",73.04,62.96,,,
"USR0000HWVA","2004-03-16",75.92,60.08,,,
"USR0000HWVA","2004-03-17",75.02,60.08,,,
"USR0000HWVA","2004-03-18",73.94,57.02,,,
"USR0000HWVA","2004-03-19",77.00,59.00,,,
"USR0000HWVA","2004-03-20",75.92,60.08,,,
"USR0000HWVA","2004-03-21",73.94,64.04,,,
"USR0000HWVA","2004-03-22",75.02,66.92,,,
"USR0000HWVA","2004-03-23",73.04,66.02,,,
"USR0000HWVA","2004-03-24",80.96,66.92,,,
"USR0000HWVA","2004-03-25",77.00,69.98,,,
"USR0000HWVA","2004-03-26",80.06,66.02,,,
"USR0000HWVA","2004-03-27",84.02,64.94,,,
"USR0000HWVA","2004-03-28",80.96,64.04,,,
"USR0000HWVA","2004-03-29",78.08,69.08,,,
"USR0000HWVA","2004-03-30",84.02,68.00,,,
"USR0000HWVA","2004-03-31",84.02,62.96,,,
"USR0000HWVA","2004-04-01",84.02,62.06,,,
"USR0000HWVA","2004-04-02",75.92,66.02,,,
"USR0000HWVA","2004-04-03",80.96,66.02,,,
"USR0000HWVA","2004-04-04",80.96,66.92,,,
"USR0000HWVA","2004-04-05",82.04,62.06,,,
"USR0000HWVA","2004-04-06",80.06,64.04,,,
"USR0000HWVA","2004-04-07",82.04,62.06,,,
"USR0000HWVA","2004-04-08",80.96,62.06,,,
"USR0000HWVA","2004-04-09",73.94,64.94,,,
"USR0000HWVA","2004-04-10",77.00,66.02,,,
"USR0000HWVA","2004-04-11",78.98,68.00,,,
"USR0000HWVA","2004-04-12",78.08,68.00,,,
"USR0000HWVA","2004-04-13",80.96,68.00,,,
"USR0000HWVA","2004-04-14",84.92,64.04,,,
"USR0000HWVA","2004-04-15",82.04,68.00,,,
"USR0000HWVA","2004-04-16",80.96,68.00,,,
"USR0000HWVA","2004-04-17",77.00,66.92,,,
"USR0000HWVA","2004-04-18",78.98,66.02,,,
"USR0000HWVA","2004-04-19",80.96,66.02,,,
"USR0000HWVA","2004-04-20",82.94,66.02,,,
"USR0000HWVA","2004-04-21",84.02,64.04,,,
"USR0000HWVA","2004-04-22",82.04,66.02,,,
"USR0000HWVA","2004-04-23",82.94,68.00,,,
"USR0000HWVA","2004-04-24",82.04,66.92,,,
"USR0000HWVA","2004-04-25",82.94,66.02,,,
"USR0000HWVA","2004-04-26",73.04,64.04,,,
"USR0000HWVA","2004-04-27",75.92,62.96,,,
"USR0000HWVA","2004-04-28",78.08,59.00,,,
"USR0000HWVA","2004-04-29",82.04,57.02,,,
"USR0000HWVA","2004-04-30",82.94,59.00,,,
"USR0000HWVA","2004-05-01",87.08,62.06,,,
"USR0000HWVA","2004-05-02",86.00,64.94,,,
"USR0000HWVA","2004-05-03",84.92,71.06,,,
"USR0000HWVA","2004-05-04",80.06,69.08,,,
"USR0000HWVA","2004-05-05",84.02,69.98,,,
"USR0000HWVA","2004-05-06",82.94,69.98,,,
"USR0000HWVA","2004-05-07",84.92,64.94,,,
"USR0000HWVA","2004-05-08",84.02,62.06,,,
"USR0000HWVA","2004-05-09",84.02,62.06,,,
"USR0000HWVA","2004-05-10",80.06,64.94,,,
"USR0000HWVA","2004-05-11",82.04,64.04,,,
"USR0000HWVA","2004-05-12",84.92,69.08,,,
"USR0000HWVA","2004-05-13",87.08,66.92,,,
"USR0000HWVA","2004-05-14",78.98,69.98,,,
"USR0000HWVA","2004-05-15",82.04,69.08,,,
"USR0000HWVA","2004-05-16",80.06,64.04,,,
"USR0000HWVA","2004-05-17",82.04,60.08,,,
"USR0000HWVA","2004-05-18",82.94,64.04,,,
"USR0000HWVA","2004-05-19",87.08,62.96,,,
"USR0000HWVA","2004-05-20",87.08,69.98,,,
"USR0000HWVA","2004-05-21",86.00,69.98,,,
"USR0000HWVA","2004-05-22",87.08,71.96,,,
"USR0000HWVA","2004-05-23",87.08,71.06,,,
"USR0000HWVA","2004-05-24",86.00,71.06,,,
"USR0000HWVA","2004-05-25",82.04,71.96,,,
"USR0000HWVA","2004-05-26",82.94,69.98,,,
"USR0000HWVA","2004-05-27",80.96,66.92,,,
"USR0000HWVA","2004-05-28",84.02,69.98,,,
"USR0000HWVA","2004-05-29",87.98,71.06,,,
"USR0000HWVA","2004-05-30",87.98,69.08,,,
"USR0000HWVA","2004-05-31",87.08,73.04,,,
"USR0000HWVA","2004-06-01",87.08,68.00,,,
"USR0000HWVA","2004-06-02",82.94,69.98,,,
"USR0000HWVA","2004-06-03",89.06,69.08,,,
"USR0000HWVA","2004-06-04",80.06,69.98,,,
"USR0000HWVA","2004-06-05",86.00,69.98,,,
"USR0000HWVA","2004-06-06",84.92,69.08,,,
"USR0000HWVA","2004-06-07",84.92,69.98,,,
"USR0000HWVA","2004-06-08",86.00,69.08,,,
"USR0000HWVA","2004-06-09",86.00,69.08,,,
"USR0000HWVA","2004-06-10",87.98,69.98,,,
"USR0000HWVA","2004-06-11",86.00,69.98,,,
"USR0000HWVA","2004-06-12",84.92,71.96,,,
"USR0000HWVA","2004-06-13",87.08,71.96,,,
"USR0000HWVA","2004-06-14",84.02,71.06,,,
"USR0000HWVA","2004-06-15",84.02,69.08,,,
"USR0000HWVA","2004-06-16",84.92,66.02,,,
"USR0000HWVA","2004-06-17",84.02,69.08,,,
"USR0000HWVA","2004-06-18",84.92,71.06,,,
"USR0000HWVA","2004-06-19",87.08,69.98,,,
"USR0000HWVA","2004-06-20",84.02,71.96,,,
"USR0000HWVA","2004-06-21",84.92,71.06,,,
"USR0000HWVA","2004-06-22",86.00,71.06,,,
"USR0000HWVA","2004-06-23",80.96,69.98,,,
"USR0000HWVA","2004-06-24",86.00,71.06,,,
"USR0000HWVA","2004-06-25",87.08,71.96,,,
"USR0000HWVA","2004-06-26",86.00,71.96,,,
"USR0000HWVA","2004-06-27",87.98,71.06,,,
"USR0000HWVA","2004-06-28",86.00,73.04,,,
"USR0000HWVA","2004-06-29",82.04,71.06,,,
"USR0000HWVA","2004-06-30",82.04,69.08,,,
"USR0000HWVA","2004-07-01",87.08,71.96,,,
"USR0000HWVA","2004-07-02",86.00,69.08,,,
"USR0000HWVA","2004-07-03",86.00,69.08,,,
"USR0000HWVA","2004-07-04",89.06,71.96,,,
"USR0000HWVA","2004-07-05",87.08,71.06,,,
"USR0000HWVA","2004-07-06",87.08,68.00,,,
"USR0000HWVA","2004-07-07",89.96,68.00,,,
"USR0000HWVA","2004-07-08",87.08,66.92,,,
"USR0000HWVA","2004-07-09",91.04,66.92,,,
"USR0000HWVA","2004-07-10",91.04,71.96,,,
"USR0000HWVA","2004-07-11",86.00,69.98,,,
"USR0000HWVA","2004-07-12",87.98,71.96,,,
"USR0000HWVA","2004-07-13",87.08,71.06,,,
"USR0000HWVA","2004-07-14",87.98,71.06,,,
"USR0000HWVA","2004-07-15",86.00,71.06,,,
"USR0000HWVA","2004-07-16",87.98,73.04,,,
"USR0000HWVA","2004-07-17",91.94,71.96,,,
"USR0000HWVA","2004-07-18",87.08,73.04,,,
"USR0000HWVA","2004-07-19",89.96,68.00,,,
"USR0000HWVA","2004-07-20",87.08,66.02,,,
"USR0000HWVA","2004-07-21",89.06,64.94,,,
"USR0000HWVA","2004-07-22",87.98,66.92,,,
"USR0000HWVA","2004-07-24",89.96,75.02,,,
"USR0000HWVA","2004-07-25",89.06,73.94,,,
"USR0000HWVA","2004-07-26",89.96,73.04,,,
"USR0000HWVA","2004-07-27",87.98,73.04,,,
"USR0000HWVA","2004-07-28",91.04,71.96,,,
"USR0000HWVA","2004-07-29",89.96,73.94,,,
"USR0000HWVA","2004-07-30",89.06,73.94,,,
"USR0000HWVA","2004-07-31",87.98,71.06,,,
"USR0000HWVA","2004-08-01",93.02,73.04,,,
"USR0000HWVA","2004-08-02",84.92,73.04,,,
"USR0000HWVA","2004-08-03",84.92,73.04,,,
"USR0000HWVA","2004-08-04",80.06,66.02,,,
"USR0000HWVA","2004-08-05",89.06,73.04,,,
"USR0000HWVA","2004-08-06",87.98,73.04,,,
"USR0000HWVA","2004-08-07",91.04,69.08,,,
"USR0000HWVA","2004-08-08",86.00,66.92,,,
"USR0000HWVA","2004-08-09",87.98,73.94,,,
"USR0000HWVA","2004-08-10",86.00,69.98,,,
"USR0000HWVA","2004-08-11",86.00,71.06,,,
"USR0000HWVA","2004-08-12",84.02,71.06,,,
"USR0000HWVA","2004-08-13",87.08,71.96,,,
"USR0000HWVA","2004-08-14",89.96,73.04,,,
"USR0000HWVA","2004-08-15",87.08,73.04,,,
"USR0000HWVA","2004-08-16",91.04,71.96,,,
"USR0000HWVA","2004-08-17",89.96,69.08,,,
"USR0000HWVA","2004-08-18",89.06,69.08,,,
"USR0000HWVA","2004-08-19",89.96,69.08,,,
"USR0000HWVA","2004-08-20",91.04,71.06,,,
"USR0000HWVA","2004-08-21",84.02,73.04,,,
"USR0000HWVA","2004-08-22",89.96,71.96,,,
"USR0000HWVA","2004-08-23",87.08,73.04,,,
"USR0000HWVA","2004-08-24",82.04,71.96,,,
"USR0000HWVA","2004-08-25",89.06,73.04,,,
"USR0000HWVA","2004-08-26",87.08,73.04,,,
"USR0000HWVA","2004-08-27",87.98,71.96,,,
"USR0000HWVA","2004-08-28",87.08,73.04,,,
"USR0000HWVA","2004-08-29",89.06,71.96,,,
"USR0000HWVA","2004-08-30",89.96,69.98,,,
"USR0000HWVA","2004-08-31",89.96,73.04,,,
"USR0000HWVA","2004-09-01",87.08,69.08,,,
"USR0000HWVA","2004-09-02",91.04,69.98,,,
"USR0000HWVA","2004-09-03",87.08,68.00,,,
"USR0000HWVA","2004-09-04",87.98,69.98,,,
"USR0000HWVA","2004-09-05",87.98,69.98,,,
"USR0000HWVA","2004-09-06",87.08,69.08,,,
"USR0000HWVA","2004-09-07",91.94,66.92,,,
"USR0000HWVA","2004-09-08",91.94,69.98,,,
"USR0000HWVA","2004-09-09",84.92,75.02,,,
"USR0000HWVA","2004-09-10",87.08,71.96,,,
"USR0000HWVA","2004-09-11",89.96,73.94,,,
"USR0000HWVA","2004-09-12",89.96,71.96,,,
"USR0000HWVA","2004-09-13",89.96,75.02,,,
"USR0000HWVA","2004-09-14",87.98,73.94,,,
"USR0000HWVA","2004-09-15",87.98,75.02,,,
"USR0000HWVA","2004-09-16",89.06,73.04,,,
"USR0000HWVA","2004-09-17",91.04,75.02,,,
"USR0000HWVA","2004-09-18",86.00,71.06,,,
"USR0000HWVA","2004-09-19",87.08,71.06,,,
"USR0000HWVA","2004-09-20",89.96,73.04,,,
"USR0000HWVA","2004-09-21",89.96,73.04,,,
"USR0000HWVA","2004-09-22",91.04,71.96,,,
"USR0000HWVA","2004-09-23",89.96,75.02,,,
"USR0000HWVA","2004-09-24",89.06,73.04,,,
"USR0000HWVA","2004-09-25",87.08,73.04,,,
"USR0000HWVA","2004-09-26",89.06,71.96,,,
"USR0000HWVA","2004-09-27",87.98,71.96,,,
"USR0000HWVA","2004-09-28",89.96,66.92,,,
"USR0000HWVA","2004-09-29",89.06,71.06,,,
"USR0000HWVA","2004-09-30",87.08,73.04,,,
"USR0000HWVA","2004-10-01",87.98,73.04,,,
"USR0000HWVA","2004-10-02",87.98,71.96,,,
"USR0000HWVA","2004-10-03",86.00,66.92,,,
"USR0000HWVA","2004-10-04",84.92,66.02,,,
"USR0000HWVA","2004-10-05",86.00,68.00,,,
"USR0000HWVA","2004-10-06",80.06,69.08,,,
"USR0000HWVA","2004-10-07",86.00,68.00,,,
"USR0000HWVA","2004-10-08",91.04,69.98,,,
"USR0000HWVA","2004-10-09",93.02,69.08,,,
"USR0000HWVA","2004-10-10",91.04,68.00,,,
"USR0000HWVA","2004-10-11",93.02,71.96,,,
"USR0000HWVA","2004-10-12",91.04,69.08,,,
"USR0000HWVA","2004-10-13",91.94,66.02,,,
"USR0000HWVA","2004-10-14",89.96,64.94,,,
"USR0000HWVA","2004-10-15",86.00,71.06,,,
"USR0000HWVA","2004-10-16",87.98,73.04,,,
"USR0000HWVA","2004-10-17",87.98,73.04,,,
"USR0000HWVA","2004-10-18",87.98,71.96,,,
"USR0000HWVA","2004-10-19",87.08,73.04,,,
"USR0000HWVA","2004-10-20",91.04,71.06,,,
"USR0000HWVA","2004-10-21",93.02,69.08,,,
"USR0000HWVA","2004-10-22",91.94,73.04,,,
"USR0000HWVA","2004-10-23",86.00,69.98,,,
"USR0000HWVA","2004-10-24",86.00,69.98,,,